[[{"header":{"parameterUnit":"m.s-1","parameterCategory":2,"la1":30.2991,"la2":30.254,"lo1":-89.0895,"lo2":-89.0444,"dx":0.0017,"dy":0.0017,"nx":28,"ny":28,"refTime":"2023-01-22T03:00:00:Z","depth":"0","parameterNumber":2,"parameterNumberName":"U-component_of_CURRENTS"},"data":[0,0,0,0,0,0,0,0,0,0,0,0,0,0,0,0,0,0,0,0,0,0,0,0,0,0,0,0,0,0,0,0,0,0,0,0,0,0,0,0,0,0,0,0,0,0,0,0,0,0,0,0,0,0,0,0,0,0,-0.3216,-0.3216,0,-0.3267,-0.3267,-0.3268,-0.3233,-0.3232,-0.323,-0.3229,-0.3198,-0.3199,-0.3199,0,0,0,0,0,0,0,0,0,0,0,0,0,-0.3108,-0.311,-0.3216,-0.3217,-0.3217,-0.3267,-0.3267,-0.3268,-0.3233,-0.3232,-0.323,-0.3228,-0.3198,-0.3199,-0.3199,0,0,0,0,0,0,0,0,0,0,0,0,0,-0.3154,-0.311,-0.3215,-0.3208,-0.3208,-0.3267,-0.3267,-0.3268,-0.3234,-0.3232,-0.323,-0.3228,-0.3198,-0.3199,-0.3199,-0.3244,0,0,-0.3201,-0.3202,0,0,0,0,0,0,0,0,-0.3151,-0.3158,-0.3208,-0.3209,-0.3209,-0.3244,-0.3218,-0.3257,-0.3234,-0.3221,-0.3229,-0.3227,-0.3209,-0.3209,-0.322,-0.3243,-0.3241,-0.3201,-0.3202,-0.3202,-0.3202,0,0,0,0,0,0,0,-0.3148,-0.3155,-0.3233,-0.3209,-0.321,-0.3209,-0.3213,-0.3226,-0.3222,-0.3222,-0.322,-0.3231,-0.3208,-0.322,-0.3219,-0.3241,-0.3201,-0.3202,-0.3202,-0.3203,-0.3268,-0.327,0,0,0,0,0,0,-0.3149,-0.3153,-0.3232,-0.3235,-0.3177,-0.3213,-0.3217,-0.3232,-0.3224,-0.3222,-0.3232,-0.3229,-0.322,-0.3219,-0.3218,-0.3257,-0.3202,-0.3203,-0.3203,-0.3267,-0.3269,-0.327,0,0,0,0,0,0,-0.3146,-0.3155,-0.323,-0.3196,-0.3206,-0.3217,-0.3235,-0.3235,-0.3239,-0.3233,-0.3229,-0.3235,-0.3218,-0.3217,-0.3232,-0.3255,-0.3203,-0.3204,-0.3265,-0.3267,-0.3269,-0.3343,0,0,0,0,0,0,-0.3143,-0.3154,-0.3163,-0.3197,-0.3208,-0.3272,-0.3237,-0.3237,-0.325,-0.3245,-0.3235,-0.323,-0.3217,-0.3231,-0.3232,-0.3255,-0.3204,-0.3264,-0.3266,-0.3269,-0.3339,-0.3347,-0.3354,0,0,0,0,0,-0.3139,-0.3165,-0.3163,-0.3173,-0.3221,-0.3274,-0.328,-0.3278,-0.3252,-0.327,-0.3257,-0.323,-0.3247,-0.3233,-0.3235,-0.3258,-0.3262,-0.3266,-0.3268,-0.3335,-0.3345,-0.3354,0,0,0,0,0,0,-0.3119,-0.3165,-0.3164,-0.32,-0.3236,-0.3268,-0.3284,-0.3283,-0.3289,-0.3276,-0.3255,-0.3252,-0.3275,-0.3259,-0.3244,-0.3284,-0.3248,-0.3252,-0.3298,-0.3308,-0.3316,-0.3309,-0.3205,0,0,0,0,0,-0.3122,-0.3149,-0.3195,-0.322,-0.3241,-0.3261,-0.3279,-0.3285,-0.3298,-0.3298,-0.3291,-0.3283,-0.3294,-0.3292,-0.33,-0.3326,-0.3298,-0.3339,-0.3347,-0.3354,-0.335,-0.3335,-0.3341,-0.328,-0.328,-0.328,0,0,-0.3117,-0.3148,-0.316,-0.3217,-0.3239,-0.3288,-0.3266,-0.3303,-0.3333,-0.3296,-0.3322,-0.3316,-0.3308,-0.3338,-0.3345,-0.3323,-0.3358,-0.3358,-0.3364,-0.3355,-0.3339,-0.3345,-0.335,-0.3282,-0.3282,-0.3281,0,0,-0.3133,-0.3154,-0.3187,-0.3229,-0.3278,-0.3302,-0.3314,-0.3354,-0.3359,-0.3396,-0.3373,-0.3379,-0.3395,-0.3394,-0.3395,-0.3451,-0.3405,-0.3452,-0.3482,-0.3469,-0.3473,-0.3477,-0.3454,-0.3455,-0.345,-0.345,-0.345,0,-0.3122,-0.3174,-0.3204,-0.3257,-0.329,-0.331,-0.3357,-0.3385,-0.342,-0.3425,-0.341,-0.3428,-0.3423,-0.3448,-0.3467,-0.3468,-0.3446,-0.3448,-0.3478,-0.3481,-0.3483,-0.3459,-0.3459,-0.3454,-0.3454,-0.3453,-0.3453,0,-0.3173,-0.3216,-0.3243,-0.3313,-0.3355,-0.34,-0.3449,-0.3477,-0.348,-0.3496,-0.3518,-0.3515,-0.3514,-0.3524,-0.3515,-0.3535,-0.351,-0.3494,-0.3452,-0.3494,-0.3466,-0.3465,-0.346,-0.3458,-0.3457,-0.3456,0,0,-0.3131,-0.3253,-0.3258,-0.3296,-0.3386,-0.342,-0.3484,-0.3536,-0.3557,-0.358,-0.3598,-0.3619,-0.3596,-0.3594,-0.3581,-0.3574,-0.3581,-0.3543,-0.3541,-0.3517,-0.3543,-0.3473,-0.3464,-0.3568,-0.3569,-0.3569,-0.3519,0,-0.3153,-0.3249,-0.3309,-0.3386,-0.3436,-0.3489,-0.3545,-0.3592,-0.3617,-0.3644,-0.3637,-0.3651,-0.363,-0.3624,-0.3619,-0.3595,-0.358,-0.3595,-0.3509,-0.3506,-0.3436,-0.3461,-0.3372,-0.3315,-0.3517,-0.3517,-0.3517,0,-0.3172,-0.3237,-0.3319,-0.3418,-0.3443,-0.3492,-0.3559,-0.3614,-0.3668,-0.3684,-0.3693,-0.3688,-0.3692,-0.3662,-0.3628,-0.3637,-0.3593,-0.3567,-0.3564,-0.3468,-0.3433,-0.3305,-0.3304,-0.3292,-0.3514,-0.3514,-0.3514,0,-0.3107,-0.3231,-0.3287,-0.3327,-0.3451,-0.3482,-0.3537,-0.3609,-0.3644,-0.3695,-0.371,-0.3719,-0.3703,-0.3673,-0.3618,-0.3624,-0.3564,-0.3564,-0.3456,-0.345,-0.334,-0.3323,-0.3309,-0.3525,-0.3525,-0.3525,-0.3525,0,-0.3098,-0.3136,-0.3257,-0.3289,-0.334,-0.3442,-0.3488,-0.3548,-0.3626,-0.3653,-0.3706,-0.3711,-0.3702,-0.3668,-0.3627,-0.3529,-0.3563,-0.3458,-0.3432,-0.3363,-0.3351,-0.3305,-0.3309,-0.3523,-0.3523,-0.3524,-0.3524,0,-0.3006,-0.3098,-0.3156,-0.3278,-0.3311,-0.3336,-0.3445,-0.3482,-0.3571,-0.3607,-0.3621,-0.3689,-0.3654,-0.3625,-0.3569,-0.3515,-0.3388,-0.3398,-0.3313,-0.3278,-0.3175,-0.3184,-0.3088,-0.2996,-0.3286,-0.3284,-0.3283,0,-0.2967,-0.2994,-0.3105,-0.3127,-0.3175,-0.3238,-0.3287,-0.3419,-0.3462,-0.3577,-0.3582,-0.3594,-0.3576,-0.3488,-0.3407,-0.3314,-0.3285,-0.317,-0.3168,-0.3152,-0.3146,-0.3141,-0.307,-0.3056,-0.3052,-0.3049,-0.3047,0,-0.2866,-0.2902,-0.2942,-0.3001,-0.3048,-0.3101,-0.3181,-0.3216,-0.3362,-0.341,-0.3461,-0.3469,-0.3427,-0.3319,-0.3213,-0.3139,-0.3102,-0.3108,-0.3114,-0.2979,-0.2948,-0.2852,-0.311,-0.3022,-0.3025,-0.3026,-0.3028,-0.3029,-0.275,-0.2749,-0.2803,-0.2837,-0.2894,-0.2927,-0.291,-0.3024,-0.3071,-0.3117,-0.3252,-0.3244,-0.3245,-0.31,-0.3026,-0.2888,-0.2905,-0.2824,-0.2841,-0.2843,-0.2739,-0.2937,-0.2808,-0.2809,-0.281,-0.2811,-0.2812,0,-0.2599,-0.2615,-0.2641,-0.2672,-0.2658,-0.2746,-0.2801,-0.2762,-0.2759,-0.2896,-0.2922,-0.2992,-0.2901,-0.2897,-0.2794,-0.2677,-0.2601,-0.2606,-0.2598,-0.2538,-0.273,-0.2707,-0.2522,-0.2522,-0.2522,-0.2522,-0.2522,-0.2522,-0.2513,-0.2476,-0.2496,-0.2412,-0.2428,-0.2341,-0.2323,-0.2314,-0.237,-0.2413,-0.2516,-0.2671,-0.2687,-0.287,-0.2725,-0.2591,-0.2504,-0.2423,-0.2415,-0.2599,-0.2623,-0.2645,-0.2625,-0.2426,-0.2426,-0.2161,-0.2159,-0.2158]},{"header":{"parameterUnit":"m.s-1","parameterCategory":2,"la1":30.2991,"la2":30.254,"lo1":-89.0895,"lo2":-89.0444,"dx":0.0017,"dy":0.0017,"nx":28,"ny":28,"refTime":"2023-01-22T03:00:00:Z","depth":"0","parameterNumber":3,"parameterNumberName":"V-component_of_CURRENTS"},"data":[0,0,0,0,0,0,0,0,0,0,0,0,0,0,0,0,0,0,0,0,0,0,0,0,0,0,0,0,0,0,0,0,0,0,0,0,0,0,0,0,0,0,0,0,0,0,0,0,0,0,0,0,0,0,0,0,0,0,-0.0364,-0.0363,0,-0.0256,-0.0255,-0.0253,-0.0178,-0.0177,-0.0177,-0.0176,-0.0029,-0.0025,-0.0022,0,0,0,0,0,0,0,0,0,0,0,0,0,-0.0438,-0.0438,-0.0365,-0.0363,-0.0362,-0.0256,-0.0255,-0.0253,-0.0178,-0.0177,-0.0177,-0.0176,-0.003,-0.0026,-0.0021,0,0,0,0,0,0,0,0,0,0,0,0,0,-0.0374,-0.0437,-0.0365,-0.0314,-0.0308,-0.0257,-0.0254,-0.0252,-0.0178,-0.0177,-0.0177,-0.0176,-0.0031,-0.0026,-0.0021,0.0001,0,0,-0.0004,-0.0002,0,0,0,0,0,0,0,0,-0.0378,-0.0371,-0.0322,-0.0317,-0.0311,-0.0232,-0.0226,-0.0166,-0.0178,-0.0225,-0.0176,-0.0176,-0.0095,-0.0084,-0.0062,0.0008,0.0014,-0.0004,-0.0001,0.0002,0.0003,0,0,0,0,0,0,0,-0.0382,-0.0375,-0.0319,-0.0321,-0.0314,-0.0273,-0.0263,-0.0214,-0.0162,-0.0221,-0.0216,-0.0207,-0.0091,-0.0068,-0.0058,0.0017,-0.0004,0.0001,0.0004,0.0006,0.0133,0.0133,0,0,0,0,0,0,-0.0404,-0.038,-0.0323,-0.0316,-0.0346,-0.0272,-0.0262,-0.0256,-0.0163,-0.0149,-0.0208,-0.0204,-0.0077,-0.0065,-0.0053,-0.0008,0.0002,0.0007,0.001,0.0133,0.0133,0.0133,0,0,0,0,0,0,-0.0406,-0.0401,-0.0327,-0.0347,-0.0335,-0.0273,-0.0266,-0.0254,-0.0232,-0.0154,-0.0139,-0.0198,-0.0076,-0.006,-0.0007,-0.0002,0.0009,0.0014,0.0132,0.0133,0.0133,0.0073,0,0,0,0,0,0,-0.0409,-0.0402,-0.0407,-0.0349,-0.0335,-0.0307,-0.0266,-0.0252,-0.0228,-0.0223,-0.0141,-0.0127,-0.0075,-0.0015,-0.0001,0.0005,0.0018,0.0132,0.0133,0.0133,0.0075,0.0072,0.0068,0,0,0,0,0,-0.0412,-0.0426,-0.0408,-0.0401,-0.0344,-0.0308,-0.0297,-0.0248,-0.0229,-0.0225,-0.0163,-0.0129,-0.0004,-0.0011,0.0006,0.0014,0.0132,0.0132,0.0133,0.0077,0.0072,0.0069,0,0,0,0,0,0,-0.046,-0.0418,-0.0397,-0.0397,-0.036,-0.0296,-0.0291,-0.0257,-0.0205,-0.02,-0.0124,-0.0105,-0.0058,-0.0016,-0.0026,0.0051,0.0069,0.0072,0.0021,0.0017,0.0014,-0.0002,0.0023,0,0,0,0,0,-0.0475,-0.0475,-0.0423,-0.0424,-0.041,-0.0352,-0.0333,-0.03,-0.0248,-0.0225,-0.0165,-0.0102,-0.0045,-0.0011,0.0041,0.0084,0.0133,0.0099,0.0096,0.0093,0.009,0.0167,0.0171,0.0134,0.0134,0.0134,0,0,-0.0495,-0.0472,-0.0471,-0.0435,-0.0402,-0.0388,-0.0339,-0.0318,-0.0297,-0.0217,-0.0174,-0.0115,-0.0038,0.0012,0.0037,0.005,0.0128,0.0093,0.009,0.0089,0.0168,0.0172,0.0175,0.0134,0.0134,0.0134,0,0,-0.0542,-0.0514,-0.0532,-0.0503,-0.0465,-0.0424,-0.0423,-0.0363,-0.0328,-0.0283,-0.0216,-0.0152,-0.0075,-0.0006,0.0036,0.0045,0.0103,0.0054,0.0033,0.0108,0.0111,0.0115,0.0177,0.0187,0.0058,0.0058,0.0058,0,-0.0569,-0.0579,-0.0531,-0.0535,-0.0517,-0.0446,-0.0452,-0.0404,-0.0332,-0.0297,-0.0282,-0.0142,-0.008,0.0005,0.0009,0.0038,0.0082,0.0041,0.0103,0.0108,0.0113,0.0176,0.0187,0.0056,0.0056,0.0056,0.0056,0,-0.0622,-0.0627,-0.0634,-0.0613,-0.0584,-0.058,-0.0508,-0.0473,-0.0424,-0.0365,-0.0282,-0.0189,-0.0102,-0.0072,-0.0028,0.0043,0.0062,0.0084,0.011,0.0113,0.0179,0.0192,0.0051,0.0052,0.0053,0.0054,0,0,-0.0691,-0.0679,-0.068,-0.0684,-0.0625,-0.0608,-0.0568,-0.0505,-0.0471,-0.0389,-0.0331,-0.0224,-0.0164,-0.0112,-0.0038,0.003,0.0103,0.0063,0.0069,0.0119,0.0259,0.0306,0.0325,0.0134,0.0136,0.0137,0.029,0,-0.075,-0.0791,-0.0752,-0.0767,-0.0778,-0.0693,-0.0659,-0.0585,-0.0507,-0.0431,-0.031,-0.0237,-0.0179,-0.0139,-0.0057,0.0069,0.0136,0.0059,0.0254,0.026,0.0297,0.0342,0.0392,0.0535,0.0303,0.0305,0.0307,0,-0.0812,-0.0831,-0.0872,-0.0848,-0.0842,-0.083,-0.0752,-0.0713,-0.0578,-0.0514,-0.0402,-0.0305,-0.0171,-0.0141,0.0079,0.0026,0.0129,0.022,0.0229,0.0303,0.0332,0.0498,0.0569,0.0748,0.0328,0.0326,0.0324,0,-0.0892,-0.0906,-0.0946,-0.0938,-0.09,-0.0889,-0.0856,-0.0744,-0.0704,-0.0565,-0.0512,-0.0338,-0.0249,-0.0089,0.0111,0.0093,0.0345,0.0349,0.0488,0.0492,0.059,0.06,0.0856,0.0483,0.0483,0.0482,0.0482,0,-0.0969,-0.0995,-0.0992,-0.1014,-0.1045,-0.0976,-0.0967,-0.0901,-0.0793,-0.0737,-0.0569,-0.0477,-0.0237,-0.0056,0.011,0.0357,0.0352,0.0499,0.0544,0.057,0.0575,0.0779,0.0835,0.0488,0.0487,0.0486,0.0485,0,-0.1051,-0.1051,-0.1097,-0.109,-0.1092,-0.1112,-0.1067,-0.1047,-0.0932,-0.0852,-0.0814,-0.0571,-0.0322,-0.0073,0.0209,0.0356,0.0702,0.0654,0.0665,0.0708,0.0989,0.1037,0.133,0.1434,0.0837,0.0839,0.0841,0,-0.1097,-0.1137,-0.1175,-0.1212,-0.1217,-0.1232,-0.1237,-0.114,-0.1099,-0.0902,-0.0861,-0.0605,-0.0389,0.0064,0.0375,0.0699,0.0818,0.09,0.0878,0.1035,0.1122,0.1161,0.1228,0.0986,0.0989,0.0992,0.0994,0,-0.1183,-0.1198,-0.1238,-0.133,-0.1363,-0.1386,-0.1373,-0.136,-0.1222,-0.1113,-0.091,-0.0721,-0.0253,0.0181,0.0598,0.0777,0.1046,0.0957,0.1138,0.1281,0.1326,0.1436,0.0841,0.1015,0.1013,0.1011,0.101,0.1009,-0.1236,-0.1295,-0.1358,-0.1436,-0.1482,-0.1516,-0.152,-0.1463,-0.1385,-0.1185,-0.0973,-0.0641,0.0001,0.0628,0.0849,0.1309,0.1239,0.1423,0.1473,0.1504,0.1597,0.1036,0.1243,0.1242,0.1241,0.1241,0.124,0,-0.1301,-0.1368,-0.1457,-0.1542,-0.1607,-0.16,-0.1587,-0.1544,-0.1445,-0.121,-0.0964,-0.0249,0.0374,0.0931,0.1614,0.1832,0.1873,0.1918,0.2001,0.2048,0.1589,0.1588,0.1856,0.1856,0.1856,0.1856,0.1855,0.1855,-0.1336,-0.1443,-0.1496,-0.1626,-0.1679,-0.1715,-0.1698,-0.1603,-0.1425,-0.1025,-0.0623,-0.0271,0.0557,0.1708,0.2323,0.2338,0.2519,0.2481,0.2578,0.2265,0.2223,0.2182,0.2199,0.2591,0.2592,0.3038,0.3043,0.3046]}],[{"header":{"parameterUnit":"m.s-1","parameterCategory":2,"la1":30.2991,"la2":30.254,"lo1":-89.0895,"lo2":-89.0444,"dx":0.0017,"dy":0.0017,"nx":28,"ny":28,"refTime":"2023-01-22T03:00:00:Z","depth":"2","parameterNumber":2,"parameterNumberName":"U-component_of_CURRENTS"},"data":[0,0,0,0,0,0,0,0,0,0,0,0,0,0,0,0,0,0,0,0,0,0,0,0,0,0,0,0,0,0,0,0,0,0,0,0,0,0,0,0,0,0,0,0,0,0,0,0,0,0,0,0,0,0,0,0,0,0,-0.2959,-0.296,0,-0.3002,-0.3003,-0.3003,-0.2978,-0.2977,-0.2976,-0.2975,-0.2949,-0.2949,-0.2949,0,0,0,0,0,0,0,0,0,0,0,0,0,-0.2863,-0.2865,-0.2959,-0.296,-0.2961,-0.3002,-0.3003,-0.3003,-0.2978,-0.2977,-0.2976,-0.2975,-0.2948,-0.2949,-0.2949,0,0,0,0,0,0,0,0,0,0,0,0,0,-0.2903,-0.2865,-0.2959,-0.2955,-0.2955,-0.3002,-0.3003,-0.3003,-0.2978,-0.2977,-0.2975,-0.2974,-0.2948,-0.2949,-0.2949,-0.298,0,0,-0.295,-0.295,0,0,0,0,0,0,0,0,-0.2901,-0.2906,-0.2955,-0.2955,-0.2956,-0.2985,-0.2959,-0.2993,-0.2979,-0.2967,-0.2975,-0.2973,-0.2957,-0.2957,-0.2965,-0.2979,-0.2978,-0.295,-0.295,-0.295,-0.295,0,0,0,0,0,0,0,-0.2898,-0.2904,-0.2973,-0.2956,-0.2957,-0.2954,-0.2958,-0.2966,-0.2966,-0.2968,-0.2967,-0.2976,-0.2956,-0.2965,-0.2964,-0.2978,-0.295,-0.295,-0.295,-0.2951,-0.3007,-0.3009,0,0,0,0,0,0,-0.29,-0.2902,-0.2972,-0.2975,-0.2927,-0.2957,-0.2961,-0.2975,-0.2968,-0.2967,-0.2977,-0.2975,-0.2965,-0.2964,-0.2963,-0.3005,-0.295,-0.2951,-0.2951,-0.3006,-0.3008,-0.3009,0,0,0,0,0,0,-0.2897,-0.2906,-0.297,-0.2941,-0.2949,-0.2961,-0.2977,-0.2977,-0.2985,-0.2976,-0.2973,-0.2984,-0.2964,-0.2963,-0.2977,-0.3003,-0.2951,-0.2951,-0.3005,-0.3007,-0.3008,-0.3084,0,0,0,0,0,0,-0.2895,-0.2905,-0.2914,-0.2941,-0.2951,-0.3008,-0.2978,-0.2979,-0.2994,-0.2991,-0.2982,-0.2978,-0.2963,-0.2977,-0.2978,-0.3002,-0.2951,-0.3003,-0.3005,-0.3008,-0.308,-0.3088,-0.3096,0,0,0,0,0,-0.2891,-0.2915,-0.2915,-0.2923,-0.2964,-0.3009,-0.3014,-0.3015,-0.2996,-0.3013,-0.3003,-0.2978,-0.2993,-0.2979,-0.2979,-0.3004,-0.3002,-0.3005,-0.3008,-0.3076,-0.3087,-0.3096,0,0,0,0,0,0,-0.2876,-0.2916,-0.2916,-0.2949,-0.298,-0.3006,-0.3021,-0.3022,-0.3029,-0.3021,-0.3,-0.2997,-0.302,-0.3004,-0.2989,-0.3028,-0.2992,-0.2995,-0.3044,-0.3053,-0.3061,-0.3056,-0.2951,0,0,0,0,0,-0.2879,-0.2904,-0.2943,-0.2966,-0.2986,-0.3003,-0.3019,-0.3026,-0.3039,-0.304,-0.3034,-0.3028,-0.3036,-0.3036,-0.3041,-0.3065,-0.3038,-0.3079,-0.3087,-0.3094,-0.3091,-0.3079,-0.3085,-0.3019,-0.3019,-0.3019,0,0,-0.2876,-0.2903,-0.2914,-0.2965,-0.2984,-0.3027,-0.3009,-0.3044,-0.3072,-0.3037,-0.3064,-0.306,-0.305,-0.3078,-0.3085,-0.3064,-0.3101,-0.3098,-0.3104,-0.3096,-0.3083,-0.3089,-0.3095,-0.3021,-0.3021,-0.302,0,0,-0.2891,-0.2912,-0.2941,-0.2978,-0.3023,-0.3043,-0.3056,-0.3092,-0.31,-0.3135,-0.3114,-0.3123,-0.3137,-0.3135,-0.3134,-0.3189,-0.3147,-0.3191,-0.3224,-0.3214,-0.3219,-0.3223,-0.3204,-0.3206,-0.3191,-0.3191,-0.3191,0,-0.2883,-0.2929,-0.2956,-0.3003,-0.3033,-0.3053,-0.3096,-0.3121,-0.3154,-0.3162,-0.3151,-0.3169,-0.3164,-0.3187,-0.3208,-0.3206,-0.3188,-0.319,-0.3224,-0.3227,-0.323,-0.3209,-0.321,-0.3195,-0.3195,-0.3194,-0.3194,0,-0.2928,-0.2967,-0.2991,-0.3053,-0.3092,-0.3134,-0.3179,-0.3208,-0.3216,-0.3231,-0.3257,-0.3253,-0.3255,-0.3265,-0.3255,-0.3278,-0.3255,-0.3239,-0.3198,-0.3241,-0.3217,-0.3216,-0.3201,-0.3199,-0.3198,-0.3197,0,0,-0.2891,-0.3,-0.3005,-0.3039,-0.3122,-0.3152,-0.3213,-0.3262,-0.3285,-0.3311,-0.3332,-0.3353,-0.3337,-0.3335,-0.3323,-0.3319,-0.3333,-0.3292,-0.329,-0.327,-0.3304,-0.3232,-0.3224,-0.3322,-0.3322,-0.3322,-0.3281,0,-0.291,-0.2995,-0.3049,-0.3119,-0.3164,-0.3215,-0.3268,-0.3314,-0.3341,-0.3371,-0.3369,-0.3387,-0.3369,-0.3369,-0.3367,-0.3344,-0.3334,-0.3345,-0.3267,-0.3264,-0.3193,-0.3222,-0.2995,-0.2934,-0.328,-0.328,-0.328,0,-0.2925,-0.2982,-0.3057,-0.3148,-0.3171,-0.3218,-0.3285,-0.3337,-0.3392,-0.3412,-0.3428,-0.3427,-0.3436,-0.341,-0.3382,-0.339,-0.3353,-0.3328,-0.3325,-0.3227,-0.3191,-0.2946,-0.292,-0.3278,-0.3278,-0.3279,-0.3279,0,-0.2866,-0.2977,-0.3029,-0.3065,-0.3179,-0.3212,-0.3265,-0.3336,-0.337,-0.3428,-0.3446,-0.3461,-0.3453,-0.3428,-0.3379,-0.3385,-0.3333,-0.333,-0.3226,-0.322,-0.2994,-0.2968,-0.3299,-0.3299,-0.3299,-0.3299,-0.3299,0,-0.2854,-0.289,-0.3004,-0.3032,-0.3082,-0.3178,-0.3225,-0.3285,-0.3363,-0.339,-0.3448,-0.3456,-0.3455,-0.3427,-0.3389,-0.3298,-0.3335,-0.323,-0.3205,-0.3016,-0.2993,-0.3262,-0.3259,-0.3297,-0.3298,-0.3298,-0.3298,0,-0.277,-0.2853,-0.2908,-0.3023,-0.3055,-0.3082,-0.3188,-0.3224,-0.3315,-0.3353,-0.3371,-0.344,-0.3412,-0.3389,-0.3341,-0.3288,-0.3226,-0.3177,-0.2955,-0.2905,-0.3121,-0.3122,-0.3074,-0.3072,-0.3069,-0.3067,-0.3065,0,-0.2732,-0.2757,-0.2862,-0.2883,-0.293,-0.2994,-0.304,-0.3168,-0.3208,-0.3324,-0.3329,-0.3351,-0.333,-0.3251,-0.3159,-0.3069,-0.3141,-0.2811,-0.2787,-0.3118,-0.3099,-0.3104,-0.3108,-0.2517,-0.2511,-0.2506,-0.2502,0,-0.2637,-0.2672,-0.2709,-0.2766,-0.2812,-0.2861,-0.2938,-0.297,-0.3111,-0.3156,-0.3206,-0.3212,-0.3164,-0.2981,-0.2876,-0.2791,-0.2818,-0.271,-0.3087,-0.2623,-0.2593,-0.2575,-0.2596,-0.2458,-0.2462,-0.2466,-0.2468,-0.247,-0.253,-0.2529,-0.2579,-0.2611,-0.2666,-0.2693,-0.2674,-0.2776,-0.2815,-0.2837,-0.2973,-0.2903,-0.2888,-0.2625,-0.2493,-0.238,-0.2568,-0.2448,-0.2463,-0.2483,-0.244,-0.2408,-0.223,-0.2233,-0.2236,-0.2238,-0.224,0,-0.2386,-0.2401,-0.2425,-0.2452,-0.2435,-0.2525,-0.2569,-0.2513,-0.2495,-0.2569,-0.2575,-0.2334,-0.224,-0.2221,-0.1998,-0.1965,-0.1932,-0.1871,-0.183,-0.1875,-0.1915,-0.1843,-0.1474,-0.1472,-0.147,-0.1468,0,0,-0.2305,-0.2265,-0.2281,-0.2197,-0.2216,-0.2127,-0.2106,-0.2059,-0.2058,-0.197,-0.1943,-0.2118,-0.2181,-0.1835,-0.1751,-0.1581,-0.1705,-0.1499,-0.2115,-0.2112,-0.2149,-0.225,-0.2191,0,0,0,0,0]},{"header":{"parameterUnit":"m.s-1","parameterCategory":2,"la1":30.2991,"la2":30.254,"lo1":-89.0895,"lo2":-89.0444,"dx":0.0017,"dy":0.0017,"nx":28,"ny":28,"refTime":"2023-01-22T03:00:00:Z","depth":"2","parameterNumber":3,"parameterNumberName":"V-component_of_CURRENTS"},"data":[0,0,0,0,0,0,0,0,0,0,0,0,0,0,0,0,0,0,0,0,0,0,0,0,0,0,0,0,0,0,0,0,0,0,0,0,0,0,0,0,0,0,0,0,0,0,0,0,0,0,0,0,0,0,0,0,0,0,-0.0333,-0.0332,0,-0.0233,-0.0232,-0.023,-0.016,-0.016,-0.016,-0.0159,-0.0022,-0.0019,-0.0016,0,0,0,0,0,0,0,0,0,0,0,0,0,-0.0399,-0.0399,-0.0333,-0.0332,-0.0331,-0.0233,-0.0232,-0.023,-0.016,-0.016,-0.0159,-0.0159,-0.0023,-0.0019,-0.0015,0,0,0,0,0,0,0,0,0,0,0,0,0,-0.034,-0.0398,-0.0333,-0.0286,-0.028,-0.0233,-0.0232,-0.023,-0.016,-0.016,-0.0159,-0.0159,-0.0024,-0.002,-0.0015,0.0005,0,0,0.0,0.0003,0,0,0,0,0,0,0,0,-0.0344,-0.0338,-0.0294,-0.0289,-0.0283,-0.021,-0.0205,-0.015,-0.0161,-0.0204,-0.0159,-0.0159,-0.0083,-0.0074,-0.0053,0.0012,0.0018,0.0001,0.0004,0.0006,0.0007,0,0,0,0,0,0,0,-0.0348,-0.0341,-0.0291,-0.0293,-0.0286,-0.0248,-0.0239,-0.0194,-0.0145,-0.02,-0.0195,-0.0188,-0.008,-0.0058,-0.005,0.002,0.0001,0.0005,0.0008,0.001,0.0128,0.0128,0,0,0,0,0,0,-0.0368,-0.0345,-0.0294,-0.0288,-0.0315,-0.0247,-0.0238,-0.0232,-0.0147,-0.0134,-0.0188,-0.0185,-0.0067,-0.0056,-0.0045,-0.0004,0.0006,0.0011,0.0014,0.0127,0.0128,0.0128,0,0,0,0,0,0,-0.037,-0.0365,-0.0298,-0.0316,-0.0305,-0.0248,-0.0242,-0.0231,-0.0211,-0.0138,-0.0124,-0.018,-0.0066,-0.0052,-0.0002,0.0002,0.0013,0.0017,0.0127,0.0127,0.0128,0.007,0,0,0,0,0,0,-0.0373,-0.0366,-0.0372,-0.0318,-0.0305,-0.028,-0.0242,-0.0229,-0.0208,-0.0202,-0.0127,-0.0113,-0.0065,-0.001,0.0003,0.0009,0.0021,0.0127,0.0127,0.0128,0.0072,0.0069,0.0066,0,0,0,0,0,-0.0375,-0.0389,-0.0373,-0.0366,-0.0314,-0.0281,-0.0271,-0.0226,-0.0208,-0.0205,-0.0148,-0.0116,0.0001,-0.0006,0.0009,0.0017,0.0127,0.0127,0.0128,0.0074,0.0069,0.0066,0,0,0,0,0,0,-0.0421,-0.0382,-0.0363,-0.0364,-0.0329,-0.027,-0.0266,-0.0235,-0.0188,-0.0182,-0.0112,-0.0094,-0.0051,-0.0011,-0.002,0.0051,0.0068,0.0071,0.0022,0.0019,0.0015,-0.0,0.0026,0,0,0,0,0,-0.0435,-0.0436,-0.0388,-0.039,-0.0377,-0.0323,-0.0306,-0.0276,-0.0227,-0.0206,-0.0151,-0.0092,-0.0038,-0.0007,0.0041,0.0081,0.0127,0.0095,0.0092,0.0089,0.0086,0.016,0.0163,0.0129,0.0129,0.0129,0,0,-0.0454,-0.0433,-0.0433,-0.04,-0.037,-0.0358,-0.0311,-0.0293,-0.0275,-0.0199,-0.0161,-0.0105,-0.0032,0.0014,0.0037,0.0049,0.0123,0.0089,0.0086,0.0085,0.016,0.0164,0.0167,0.0129,0.0129,0.0129,0,0,-0.0499,-0.0474,-0.0492,-0.0465,-0.0431,-0.0393,-0.0392,-0.0337,-0.0305,-0.0264,-0.0201,-0.0141,-0.007,-0.0005,0.0035,0.0042,0.0098,0.0051,0.0031,0.0102,0.0106,0.0109,0.0169,0.0178,0.0056,0.0056,0.0056,0,-0.0526,-0.0537,-0.0491,-0.0497,-0.0481,-0.0414,-0.0422,-0.0378,-0.0311,-0.0279,-0.0264,-0.0134,-0.0075,0.0004,0.0008,0.0036,0.0078,0.0039,0.0098,0.0102,0.0107,0.0167,0.0178,0.0053,0.0053,0.0054,0.0054,0,-0.0578,-0.0584,-0.0592,-0.0574,-0.0547,-0.0545,-0.0478,-0.0446,-0.0401,-0.0346,-0.0269,-0.018,-0.0099,-0.007,-0.0027,0.0039,0.0058,0.0079,0.0105,0.0107,0.017,0.0183,0.0049,0.005,0.0051,0.0052,0,0,-0.0645,-0.0635,-0.0637,-0.0642,-0.0589,-0.0574,-0.0538,-0.0481,-0.0451,-0.0373,-0.032,-0.0218,-0.0161,-0.0112,-0.0041,0.0026,0.0097,0.0059,0.0064,0.0112,0.0246,0.0286,0.0304,0.0126,0.0128,0.0129,0.0275,0,-0.0702,-0.0744,-0.0708,-0.0726,-0.0738,-0.0658,-0.0629,-0.056,-0.0488,-0.0418,-0.0302,-0.0234,-0.0177,-0.0139,-0.0059,0.0063,0.0127,0.0055,0.0241,0.0247,0.0278,0.0319,0.0269,0.0397,0.0288,0.029,0.0291,0,-0.0763,-0.0783,-0.0826,-0.0806,-0.0801,-0.0792,-0.0722,-0.0687,-0.0561,-0.0501,-0.0396,-0.0304,-0.0174,-0.0143,0.0068,0.0018,0.0118,0.0207,0.0216,0.0282,0.0311,0.0379,0.0425,0.0313,0.0311,0.031,0.0308,0,-0.0841,-0.0857,-0.0898,-0.0892,-0.0859,-0.0851,-0.0822,-0.0719,-0.0682,-0.0553,-0.0503,-0.0338,-0.0252,-0.0097,0.0098,0.0081,0.0323,0.0329,0.046,0.0463,0.0473,0.0475,0.0459,0.0459,0.0458,0.0458,0.0457,0,-0.0916,-0.0943,-0.0943,-0.0965,-0.0999,-0.0935,-0.0931,-0.087,-0.077,-0.072,-0.0559,-0.0473,-0.024,-0.0066,0.0094,0.0331,0.0329,0.0469,0.0512,0.0451,0.0449,0.0415,0.0408,0.0463,0.0462,0.0461,0.046,0,-0.0995,-0.0996,-0.1043,-0.104,-0.1044,-0.1066,-0.1028,-0.1011,-0.0904,-0.0831,-0.0795,-0.0564,-0.0325,-0.0085,0.0188,0.0329,0.0543,0.0616,0.0527,0.0557,0.0631,0.0619,0.0781,0.0784,0.0786,0.0788,0.079,0,-0.104,-0.1079,-0.1119,-0.1156,-0.1164,-0.1181,-0.1189,-0.1099,-0.1062,-0.088,-0.0842,-0.0598,-0.0394,0.004,0.0326,0.0634,0.062,0.0741,0.0707,0.0642,0.0668,0.0652,0.0638,0.0696,0.0696,0.0697,0.0697,0,-0.1123,-0.1138,-0.1178,-0.127,-0.1304,-0.1329,-0.1321,-0.1309,-0.1181,-0.1081,-0.0891,-0.0714,-0.028,0.0081,0.0474,0.0631,0.0693,0.0765,0.0747,0.0617,0.0573,0.0594,0.0581,0.0703,0.0703,0.0702,0.0702,0.0702,-0.1174,-0.1231,-0.1294,-0.1371,-0.1419,-0.1453,-0.146,-0.1407,-0.1335,-0.1149,-0.0956,-0.0656,-0.029,0.0279,0.056,0.0796,0.0793,0.0836,0.083,0.0824,0.0783,0.0745,0.09,0.09,0.0901,0.0901,0.0902,0,-0.1236,-0.1302,-0.139,-0.1474,-0.1537,-0.1536,-0.1526,-0.148,-0.1386,-0.1179,-0.0954,-0.0543,-0.0119,0.0242,0.064,0.0888,0.0843,0.0899,0.0801,0.0795,0.0789,0.0742,0.0851,0.0852,0.0852,0.0853,0,0,-0.127,-0.1373,-0.1424,-0.1552,-0.1606,-0.1642,-0.1629,-0.1528,-0.1367,-0.1142,-0.0914,-0.0576,-0.0112,0.0159,0.0478,0.068,0.0657,0.0675,0.0689,0.053,0.0521,0.073,0.0649,0,0,0,0,0]}],[{"header":{"parameterUnit":"m.s-1","parameterCategory":2,"la1":30.2991,"la2":30.254,"lo1":-89.0895,"lo2":-89.0444,"dx":0.0017,"dy":0.0017,"nx":28,"ny":28,"refTime":"2023-01-22T03:00:00:Z","depth":"4","parameterNumber":2,"parameterNumberName":"U-component_of_CURRENTS"},"data":[0,0,0,0,0,0,0,0,0,0,0,0,0,0,0,0,0,0,0,0,0,0,0,0,0,0,0,0,0,0,0,0,0,0,0,0,0,0,0,0,0,0,0,0,0,0,0,0,0,0,0,0,0,0,0,0,0,0,-0.2006,-0.2007,0,-0.2075,-0.2076,-0.2076,-0.2122,-0.2122,-0.2123,-0.2123,-0.2168,-0.2169,-0.217,0,0,0,0,0,0,0,0,0,0,0,0,0,-0.1899,-0.1901,-0.2006,-0.2007,-0.2008,-0.2075,-0.2076,-0.2077,-0.2122,-0.2122,-0.2123,-0.2124,-0.2168,-0.2169,-0.217,0,0,0,0,0,0,0,0,0,0,0,0,0,-0.1952,-0.1901,-0.2006,-0.204,-0.2044,-0.2075,-0.2076,-0.2077,-0.2122,-0.2122,-0.2123,-0.2124,-0.2168,-0.2169,-0.217,-0.2161,0,0,-0.2173,-0.2174,0,0,0,0,0,0,0,0,-0.1949,-0.1956,-0.2034,-0.2038,-0.2043,-0.2093,-0.2055,-0.2105,-0.2122,-0.209,-0.2123,-0.2124,-0.2142,-0.2145,-0.2153,-0.2163,-0.2165,-0.2173,-0.2174,-0.2174,-0.2175,0,0,0,0,0,0,0,-0.1946,-0.1953,-0.2031,-0.2035,-0.2041,-0.2048,-0.2056,-0.2064,-0.2108,-0.2093,-0.2097,-0.2108,-0.2144,-0.2152,-0.2155,-0.2166,-0.2173,-0.2174,-0.2175,-0.2175,-0.2261,-0.2263,0,0,0,0,0,0,-0.1942,-0.195,-0.2029,-0.2033,-0.2,-0.205,-0.2059,-0.2074,-0.2109,-0.2116,-0.2107,-0.211,-0.215,-0.2153,-0.2156,-0.2239,-0.2174,-0.2175,-0.2176,-0.2259,-0.2261,-0.2263,0,0,0,0,0,0,-0.1939,-0.1948,-0.2026,-0.1995,-0.2005,-0.2051,-0.2068,-0.2075,-0.2119,-0.2121,-0.2127,-0.2148,-0.2151,-0.2155,-0.2199,-0.2238,-0.2176,-0.2177,-0.2257,-0.226,-0.2262,-0.2346,0,0,0,0,0,0,-0.1936,-0.1947,-0.1973,-0.1995,-0.2007,-0.2071,-0.2067,-0.2076,-0.2124,-0.2129,-0.2157,-0.216,-0.2152,-0.2197,-0.22,-0.2238,-0.2178,-0.2255,-0.2259,-0.2261,-0.2341,-0.2351,-0.2359,0,0,0,0,0,-0.1932,-0.196,-0.1974,-0.1984,-0.2036,-0.2072,-0.208,-0.2112,-0.2125,-0.2153,-0.2174,-0.2161,-0.2218,-0.22,-0.2202,-0.2242,-0.2254,-0.2258,-0.2261,-0.2337,-0.2349,-0.2359,0,0,0,0,0,0,-0.1929,-0.1968,-0.1983,-0.2024,-0.2058,-0.2082,-0.2114,-0.2133,-0.2171,-0.2186,-0.2182,-0.2187,-0.224,-0.2228,-0.2208,-0.2275,-0.2233,-0.2238,-0.229,-0.2301,-0.231,-0.2304,-0.2179,0,0,0,0,0,-0.1939,-0.1972,-0.2006,-0.2041,-0.2063,-0.2095,-0.212,-0.2144,-0.2173,-0.2193,-0.2214,-0.2233,-0.225,-0.2268,-0.2281,-0.2318,-0.2292,-0.2344,-0.2353,-0.2361,-0.2358,-0.2355,-0.2364,-0.2275,-0.2275,-0.2275,0,0,-0.1947,-0.1974,-0.1994,-0.2044,-0.2073,-0.2113,-0.2113,-0.2165,-0.2204,-0.219,-0.2259,-0.2269,-0.2268,-0.2313,-0.2334,-0.2313,-0.2376,-0.2366,-0.2372,-0.2364,-0.236,-0.2368,-0.2376,-0.2278,-0.2277,-0.2277,0,0,-0.1966,-0.2006,-0.2037,-0.2073,-0.2129,-0.215,-0.2173,-0.2222,-0.2255,-0.2313,-0.2312,-0.2347,-0.2383,-0.2388,-0.2391,-0.2457,-0.2424,-0.2469,-0.2512,-0.2511,-0.2518,-0.2524,-0.2511,-0.2514,-0.2474,-0.2474,-0.2474,0,-0.1976,-0.2019,-0.2053,-0.2094,-0.213,-0.2171,-0.2214,-0.2252,-0.2312,-0.2338,-0.235,-0.2406,-0.2414,-0.2448,-0.2477,-0.2478,-0.2467,-0.2472,-0.2523,-0.2528,-0.2532,-0.2517,-0.252,-0.2479,-0.2478,-0.2478,-0.2477,0,-0.2008,-0.206,-0.2085,-0.2149,-0.2193,-0.224,-0.2294,-0.2347,-0.2392,-0.242,-0.2483,-0.2497,-0.2524,-0.254,-0.2533,-0.2573,-0.2553,-0.2534,-0.2493,-0.2546,-0.2527,-0.2528,-0.2485,-0.2483,-0.2482,-0.2481,0,0,-0.1978,-0.2086,-0.2098,-0.214,-0.2229,-0.2261,-0.234,-0.2404,-0.2449,-0.2511,-0.256,-0.2603,-0.2612,-0.2616,-0.2616,-0.2622,-0.2654,-0.2602,-0.26,-0.2585,-0.2649,-0.2483,-0.2468,-0.265,-0.265,-0.2651,-0.2626,0,-0.1992,-0.2073,-0.2129,-0.2211,-0.2255,-0.2327,-0.2391,-0.2458,-0.2514,-0.2574,-0.2599,-0.2646,-0.2641,-0.2663,-0.2673,-0.2658,-0.2662,-0.2662,-0.2602,-0.26,-0.2443,-0.2465,-0.2653,-0.2627,-0.2627,-0.2627,-0.2627,0,-0.1993,-0.2051,-0.2135,-0.2242,-0.2269,-0.2332,-0.2433,-0.2495,-0.2581,-0.2626,-0.2675,-0.2695,-0.2729,-0.2714,-0.2712,-0.2716,-0.2693,-0.2674,-0.2672,-0.2483,-0.2436,-0.256,-0.2629,-0.2629,-0.2629,-0.2629,-0.2629,0,-0.1928,-0.2049,-0.2116,-0.2155,-0.2284,-0.2343,-0.2414,-0.2512,-0.2561,-0.2658,-0.2694,-0.2738,-0.2759,-0.2749,-0.2719,-0.2726,-0.2694,-0.2692,-0.2518,-0.2506,-0.2627,-0.2621,-0.2682,-0.2682,-0.2682,-0.2682,-0.2682,0,-0.1894,-0.1951,-0.21,-0.2134,-0.2215,-0.2322,-0.2405,-0.2483,-0.2585,-0.2622,-0.2713,-0.2727,-0.2771,-0.2757,-0.273,-0.2611,-0.2699,-0.2516,-0.2483,-0.2665,-0.2663,-0.2628,-0.2623,-0.2681,-0.2681,-0.2681,-0.2681,0,-0.1796,-0.19,-0.1981,-0.2134,-0.2184,-0.2241,-0.2388,-0.2434,-0.2554,-0.2605,-0.2637,-0.2723,-0.2702,-0.2708,-0.2681,-0.2594,-0.252,-0.2458,-0.2645,-0.2625,-0.2336,-0.2336,-0.2263,-0.2257,-0.2252,-0.2248,-0.2244,0,-0.1749,-0.1785,-0.1951,-0.1997,-0.2072,-0.2178,-0.2241,-0.2394,-0.2433,-0.2566,-0.2562,-0.2608,-0.2635,-0.2456,-0.2494,-0.2414,-0.2386,-0.2336,-0.2343,-0.2315,-0.2292,-0.23,-0.2306,-0.2236,-0.2234,-0.2233,-0.2232,0,-0.1641,-0.1719,-0.178,-0.188,-0.1966,-0.2037,-0.214,-0.2153,-0.2304,-0.244,-0.2415,-0.2397,-0.2368,-0.2336,-0.228,-0.2229,-0.2364,-0.2282,-0.2293,-0.2298,-0.2281,-0.2265,-0.2277,-0.2213,-0.2216,-0.2218,-0.2219,0,-0.1553,-0.1571,-0.1664,-0.1728,-0.1829,-0.1855,-0.1937,-0.1983,-0.2044,-0.2207,-0.2189,-0.2247,-0.2339,-0.2238,-0.2189,-0.212,-0.2096,-0.203,-0.2054,-0.2074,-0.2021,-0.1972,-0.177,0,0,0,0,0,-0.1451,-0.145,-0.1502,-0.1564,-0.1656,-0.1706,-0.1843,-0.1929,-0.2082,-0.2008,-0.2094,-0.2062,-0.2009,-0.2045,-0.1929,-0.2094,-0.2096,-0.1952,-0.2031,-0.2112,-0.2134,-0.2087,0,0,0,0,0,0,-0.1381,-0.1419,-0.1438,-0.1401,-0.141,-0.1488,-0.1564,-0.1678,-0.1651,-0.1817,-0.1795,-0.1924,-0.1895,-0.2024,-0.1877,-0.1886,-0.1891,-0.2004,-0.1998,-0.2101,-0.212,-0.2137,-0.2096,0,0,0,0,0]},{"header":{"parameterUnit":"m.s-1","parameterCategory":2,"la1":30.2991,"la2":30.254,"lo1":-89.0895,"lo2":-89.0444,"dx":0.0017,"dy":0.0017,"nx":28,"ny":28,"refTime":"2023-01-22T03:00:00:Z","depth":"4","parameterNumber":3,"parameterNumberName":"V-component_of_CURRENTS"},"data":[0,0,0,0,0,0,0,0,0,0,0,0,0,0,0,0,0,0,0,0,0,0,0,0,0,0,0,0,0,0,0,0,0,0,0,0,0,0,0,0,0,0,0,0,0,0,0,0,0,0,0,0,0,0,0,0,0,0,-0.0228,-0.0228,0,-0.017,-0.0169,-0.0168,-0.0124,-0.0123,-0.0123,-0.0123,-0.0028,-0.0026,-0.0024,0,0,0,0,0,0,0,0,0,0,0,0,0,-0.0259,-0.0259,-0.0228,-0.0228,-0.0227,-0.017,-0.0169,-0.0168,-0.0124,-0.0123,-0.0123,-0.0123,-0.0029,-0.0026,-0.0023,0,0,0,0,0,0,0,0,0,0,0,0,0,-0.0226,-0.0259,-0.0228,-0.02,-0.0197,-0.017,-0.0169,-0.0167,-0.0124,-0.0123,-0.0123,-0.0123,-0.003,-0.0026,-0.0023,-0.0009,0,0,-0.0013,-0.0011,0,0,0,0,0,0,0,0,-0.0228,-0.0225,-0.0204,-0.0202,-0.0198,-0.0155,-0.0145,-0.0113,-0.0124,-0.015,-0.0123,-0.0123,-0.0069,-0.0062,-0.005,-0.0004,-0.0,-0.0012,-0.001,-0.0009,-0.0008,0,0,0,0,0,0,0,-0.023,-0.0227,-0.0203,-0.0204,-0.02,-0.0175,-0.017,-0.0138,-0.011,-0.0147,-0.0144,-0.0141,-0.0066,-0.0053,-0.0047,0.0001,-0.0012,-0.0009,-0.0007,-0.0006,0.0077,0.0077,0,0,0,0,0,0,-0.0244,-0.0229,-0.0205,-0.0202,-0.0215,-0.0175,-0.0169,-0.0168,-0.0111,-0.0103,-0.0141,-0.0139,-0.0059,-0.0051,-0.0044,-0.0018,-0.0009,-0.0005,-0.0003,0.0076,0.0077,0.0077,0,0,0,0,0,0,-0.0245,-0.0242,-0.0208,-0.0215,-0.0209,-0.0175,-0.0174,-0.0167,-0.0157,-0.0107,-0.0097,-0.0139,-0.0059,-0.0048,-0.0016,-0.0014,-0.0004,-0.0001,0.0076,0.0076,0.0077,0.003,0,0,0,0,0,0,-0.0246,-0.0243,-0.025,-0.0216,-0.0209,-0.0201,-0.0174,-0.0166,-0.0156,-0.0153,-0.0102,-0.0092,-0.0058,-0.0021,-0.0013,-0.0009,0.0002,0.0076,0.0076,0.0077,0.0031,0.0028,0.0026,0,0,0,0,0,-0.0247,-0.026,-0.0251,-0.0248,-0.0219,-0.0202,-0.0196,-0.0168,-0.0157,-0.0157,-0.0118,-0.0094,-0.0014,-0.0019,-0.0008,-0.0004,0.0076,0.0076,0.0077,0.0032,0.0029,0.0026,0,0,0,0,0,0,-0.0277,-0.0256,-0.0245,-0.0251,-0.0232,-0.0195,-0.0196,-0.0176,-0.0146,-0.0143,-0.0093,-0.0081,-0.0054,-0.0022,-0.0029,0.0021,0.0035,0.0037,-0.0002,-0.0005,-0.0008,-0.0021,0.0005,0,0,0,0,0,-0.0288,-0.0294,-0.0265,-0.0272,-0.0265,-0.0232,-0.0223,-0.0205,-0.0174,-0.016,-0.0123,-0.0081,-0.0044,-0.0021,0.0011,0.004,0.0077,0.005,0.0047,0.0045,0.0041,0.0101,0.0104,0.0078,0.0078,0.0078,0,0,-0.0302,-0.0292,-0.0295,-0.0279,-0.0262,-0.026,-0.0226,-0.0219,-0.0211,-0.0155,-0.0135,-0.0095,-0.0041,-0.001,0.0006,0.0018,0.0071,0.0045,0.0043,0.004,0.0102,0.0104,0.0107,0.0078,0.0078,0.0078,0,0,-0.0338,-0.0324,-0.0342,-0.0329,-0.0312,-0.0288,-0.029,-0.0256,-0.0237,-0.0213,-0.0168,-0.0123,-0.0076,-0.0026,0.0003,0.0006,0.0049,0.0012,-0.0004,0.0054,0.0057,0.006,0.0107,0.0114,0.0018,0.0018,0.0018,0,-0.0358,-0.0374,-0.0345,-0.0355,-0.035,-0.0305,-0.0319,-0.029,-0.0249,-0.0229,-0.0217,-0.0127,-0.0081,-0.0025,-0.0021,0.0001,0.0033,0.0003,0.0051,0.0054,0.0058,0.0105,0.0114,0.0016,0.0016,0.0016,0.0017,0,-0.0401,-0.0414,-0.0423,-0.042,-0.0408,-0.0413,-0.0371,-0.0354,-0.0324,-0.0287,-0.0237,-0.0167,-0.011,-0.0086,-0.0051,0.0,0.0014,0.0033,0.0056,0.0058,0.0108,0.0118,0.0013,0.0013,0.0014,0.0015,0,0,-0.0445,-0.0455,-0.0459,-0.0472,-0.0444,-0.0441,-0.0423,-0.0391,-0.0377,-0.0321,-0.029,-0.0211,-0.0166,-0.0129,-0.0071,-0.0014,0.0046,0.0016,0.002,0.0057,0.0165,0.0148,0.0158,0.0071,0.0072,0.0073,0.0188,0,-0.049,-0.0536,-0.0518,-0.0548,-0.0565,-0.0516,-0.0504,-0.0463,-0.0415,-0.037,-0.028,-0.0234,-0.0183,-0.0154,-0.0087,0.0014,0.0069,0.0012,0.0163,0.0167,0.0148,0.0168,0.0078,0.0196,0.0198,0.02,0.0201,0,-0.0536,-0.0562,-0.061,-0.0618,-0.0619,-0.0625,-0.0593,-0.0576,-0.0491,-0.045,-0.0373,-0.0302,-0.0197,-0.0165,0.0009,-0.0032,0.0056,0.0132,0.0139,0.0146,0.0169,0.0197,0.022,0.0218,0.0217,0.0216,0.0215,0,-0.0586,-0.0621,-0.0667,-0.067,-0.0669,-0.0677,-0.0669,-0.0605,-0.0587,-0.0499,-0.0465,-0.0337,-0.0266,-0.0138,0.0027,0.0017,0.0214,0.0224,0.0291,0.0291,0.0292,0.0288,0.0333,0.0333,0.0333,0.0332,0.0332,0,-0.0633,-0.0669,-0.0701,-0.0726,-0.0773,-0.0742,-0.0762,-0.0726,-0.0665,-0.0636,-0.0516,-0.0453,-0.0257,-0.0116,0.0019,0.0191,0.0213,0.0291,0.0322,0.0269,0.0261,0.0299,0.0294,0.0337,0.0336,0.0335,0.0334,0,-0.0674,-0.0697,-0.0755,-0.0787,-0.0804,-0.0835,-0.0842,-0.084,-0.0775,-0.0729,-0.0703,-0.0527,-0.034,-0.0144,0.0084,0.0177,0.0341,0.0392,0.0319,0.0345,0.0378,0.0369,0.0472,0.0473,0.0473,0.0473,0.0474,0,-0.0697,-0.0737,-0.0813,-0.0859,-0.0882,-0.0924,-0.0948,-0.0906,-0.0886,-0.077,-0.0739,-0.0557,-0.0424,-0.01,0.009,0.0347,0.0375,0.0445,0.041,0.0374,0.0395,0.0385,0.0375,0.0474,0.0474,0.0474,0.0474,0,-0.0738,-0.0773,-0.0821,-0.0925,-0.0978,-0.1024,-0.1044,-0.1034,-0.0962,-0.0911,-0.0746,-0.0568,-0.0351,-0.0101,0.0105,0.0283,0.0393,0.045,0.045,0.0417,0.0377,0.0395,0.0386,0.0476,0.0475,0.0475,0.0475,0,-0.0761,-0.081,-0.0888,-0.0969,-0.1048,-0.1089,-0.1096,-0.1046,-0.1011,-0.0862,-0.0813,-0.0566,-0.0414,-0.0134,0.0053,0.0232,0.0263,0.0295,0.0303,0.0304,0.0215,0.0138,0.0194,0,0,0,0,0,-0.0774,-0.0835,-0.0924,-0.1008,-0.1087,-0.1126,-0.1139,-0.1121,-0.1051,-0.0942,-0.0867,-0.0659,-0.0349,-0.0203,-0.0025,0.003,0.0269,0.0238,0.0303,0.0483,0.0481,0.0404,0,0,0,0,0,0,-0.0785,-0.0873,-0.0923,-0.1022,-0.1083,-0.1153,-0.116,-0.1117,-0.103,-0.0937,-0.0757,-0.0648,-0.0335,-0.0447,-0.0029,0.0026,0.0081,0.0395,0.0398,0.0483,0.0482,0.0481,0.0401,0,0,0,0,0]}]]